This is the latest recevied weather packets stored in our database for station/object AD7ZD. If no packets are shown the sender has not sent any weather packets the latest 1 day(s).
| Time | Temp. | Humidity | Pressure | Rain* | Wind** | Luminosity | Snow |
|---|---|---|---|---|---|---|---|
| 1778097056 | 21.67° C | 32% | 1018.2 hPa | 0 mm | - | 777 W/m² | - |
| 1778096148 | 21.67° C | 33% | 1018.2 hPa | 0 mm | - | 711 W/m² | - |
| 1778095845 | 21.11° C | 33% | 1018.2 hPa | 0 mm | - | 714 W/m² | - |
| 1778094630 | 21.67° C | 34% | 1018.3 hPa | 0 mm | - | 799 W/m² | - |
| 1778090994 | 20° C | 44% | 1018.4 hPa | 0 mm | - | 886 W/m² | - |
| 1778090084 | 18.89° C | 45% | 1018.7 hPa | 0 mm | - | 856 W/m² | - |
| 1778088872 | 18.33° C | 48% | 1018.5 hPa | 0 mm | - | 716 W/m² | - |
| 1778085832 | 18.33° C | 45% | 1018.5 hPa | 0 mm | - | 738 W/m² | - |
| 1778085530 | 17.78° C | 47% | 1018.3 hPa | 0 mm | - | 684 W/m² | - |
| 1778085224 | 18.33° C | 45% | 1018.4 hPa | 0 mm | - | 607 W/m² | - |
| 1778084618 | 17.78° C | 47% | 1018 hPa | 0 mm | - | 546 W/m² | - |
| 1778084315 | 18.33° C | 46% | 1018.2 hPa | 0 mm | - | 587 W/m² | - |
| 1778084012 | 17.22° C | 48% | 1017.8 hPa | 0 mm | - | 500 W/m² | - |
| 1778083710 | 17.22° C | 48% | 1018.2 hPa | 0 mm | - | 470 W/m² | - |
| 1778083406 | 17.22° C | 48% | 1018 hPa | 0 mm | - | 407 W/m² | - |
| 1778083105 | 16.67° C | 50% | 1017.9 hPa | 0 mm | - | 426 W/m² | - |
| 1778080463 | 13.89° C | 60% | 1017.7 hPa | 0 mm | - | 267 W/m² | - |
| 1778080161 | 14.44° C | 62% | 1017.6 hPa | 0 mm | - | 262 W/m² | - |
| 1778077435 | 12.22° C | 70% | 1017 hPa | 0 mm | - | 69 W/m² | - |
| 1778074709 | 7.78° C | 84% | 1016.6 hPa | 0 mm | - | 38 W/m² | - |
| 1778074102 | 8.33° C | 82% | 1016.2 hPa | 0 mm | - | 27 W/m² | - |
| 1778073497 | 7.78° C | 84% | 1016.2 hPa | 0 mm | - | 17 W/m² | - |
| 1778073193 | 7.78° C | 85% | 1016.2 hPa | 0 mm | - | 12 W/m² | - |
| 1778072587 | 7.78° C | 86% | 1015.9 hPa | 0 mm | - | 6 W/m² | - |
| 1778072285 | 7.22° C | 87% | 1016 hPa | 0 mm | - | 2 W/m² | - |
* Rain latest hour (hover to see other rain measurements)
** Current wind speed in m/s (hover to see current wind gust speed)